Temperature
14 15 15 15 15 14 14 13 13 14 13 13 13 13 13 13 14 14 14 14 14 14 14 14 14 14 14 14 14 14 13 13 13 13 13 13 12 12 12 12 12 12 12 12
14 14 14 14 14 14 14 14 13 13 13 13 13 13 13 13 13 13 14 14 14 14 14 14 14 14 14 13 13 13 13 13 13 13 12 12 12 12 12 12 12 12 12 11
13 13 14 14 14 14 14 13 14 13 13 12 12 12 13 13 14 13 14 14 14 14 14 14 13 13 13 13 13 13 13 13 12 12 12 12 12 12 11 11 11 11 11 11
11 13 14 14 14 14 14 13 13 13 13 12 13 13 14 14 14 14 14 13 13 13 13 13 13 13 13 13 13 12 12 12 12 12 12 11 11 11 11 11 11 11 11 11
10 12 12 13 14 13 14 13 13 12 12 12 13 13 13 14 14 14 14 13 13 13 13 13 13 13 13 12 12 12 12 12 11 11 11 11 11 11 11 11 11 10 10 10
10 12 12 13 14 14 13 13 13 12 12 12 12 10 11 13 13 13 13 13 13 13 13 13 12 12 12 12 12 12 11 11 11 11 11 11 10 10 10 10 10 10 10 10
10 11 11 12 13 14 13 13 13 13 12 12 11 12 13 13 13 13 13 12 12 12 12 12 12 12 12 11 11 11 11 11 11 10 10 10 10 10 10 9 9 9 9 9
9 10 11 12 12 12 12 13 13 13 13 13 13 13 13 13 13 12 12 12 12 12 12 12 11 11 11 11 11 11 11 10 10 10 10 10 10 9 9 9 9 9 9 8
10 11 12 12 13 14 13 13 13 13 13 13 13 12 12 12 12 12 12 12 11 11 11 11 11 11 10 10 10 10 10 10 10 9 9 9 9 9 9 8 8 8 8 8
9 10 11 12 13 13 13 13 13 13 13 12 12 12 12 12 11 11 11 11 11 11 11 10 10 10 10 10 10 9 9 9 9 9 9 9 8 8 8 8 8 8 7 7
9 9 11 12 13 13 13 13 12 12 12 12 12 12 11 11 11 11 11 11 11 10 10 10 10 10 9 9 9 9 9 9 9 8 8 8 8 8 8 7 7 7 7 7
10 11 10 12 12 12 12 12 12 12 12 11 11 11 11 11 11 10 10 10 10 10 10 10 9 9 9 9 9 9 9 8 8 8 8 7 7 7 7 7 7 7 7 6
12 12 12 12 12 12 12 12 11 11 11 11 11 11 10 10 10 10 10 10 10 9 9 9 9 9 8 8 8 8 8 8 7 7 7 7 7 7 7 7 6 6 6 6
12 11 11 11 11 11 11 11 11 11 10 10 10 10 10 10 10 9 9 9 9 9 9 8 8 8 8 8 8 7 7 7 7 7 6 6 6 6 6 6 6 6 6 5
11 11 11 10 10 10 10 10 10 10 10 10 10 10 9 9 9 9 9 8 8 8 8 8 7 7 7 7 7 7 7 7 6 6 6 6 6 6 6 5 5 5 5 5
10 10 10 10 10 10 10 10 9 9 9 9 9 9 9 9 8 8 8 8 8 7 7 7 7 7 7 7 7 6 6 6 6 6 6 5 5 5 5 5 5 5 5 5
9 9 9 9 9 9 9 9 9 9 9 9 9 8 8 8 8 7 7 7 7 7 7 6 6 6 6 6 6 6 6 5 5 5 5 5 5 5 4 4 4 4 4 4
9 9 9 9 9 9 8 8 8 8 8 8 8 8 8 7 7 7 7 6 6 6 6 6 6 6 6 6 5 5 5 5 5 5 5 4 4 4 4 4 4 4 4 4
8 8 8 8 8 8 8 8 8 8 8 7 7 7 7 7 6 6 6 6 6 6 6 5 5 5 5 5 5 5 4 4 4 4 4 4 4 3 3 3 3 3 3 3
8 8 8 8 8 8 8 8 8 8 7 7 7 7 6 6 6 6 5 5 5 5 5 5 5 5 4 4 4 4 4 4 3 3 3 3 3 3 3 3 3 3 2 2
8 8 7 7 7 7 7 7 7 7 7 7 6 6 6 6 5 5 5 5 5 5 4 4 4 4 4 4 3 3 3 3 3 3 3 3 2 2 2 2 2 2 2 2
8 7 7 7 7 7 7 7 7 7 6 6 6 6 5 5 5 5 5 5 5 4 4 4 4 4 3 3 3 3 3 2 2 2 2 2 2 2 2 2 1 1 1 1
7 7 7 7 7 6 6 6 6 6 6 6 6 5 5 5 5 4 4 4 4 4 4 3 3 3 3 2 2 2 2 2 2 2 1 1 1 1 1 1 1 1 1 1
7 7 6 6 6 6 6 6 6 6 5 5 5 5 5 4 4 4 4 4 4 3 3 3 3 3 2 2 2 2 2 2 1 1 1 1 1 1 1 0 0 0 0 0
6 6 6 6 6 6 6 6 5 5 5 5 5 4 4 4 4 4 4 3 3 3 3 3 3 2 2 2 2 1 1 1 1 1 1 1 0 0 0 0 -0 -0 -0 -0
6 5 5 5 5 5 5 5 5 5 4 4 4 4 4 4 4 3 3 3 3 3 3 2 2 2 2 2 1 1 1 1 1 1 0 0 0 -0 -0 -0 -0 -0 -1 -1
5 5 5 5 5 5 5 4 4 4 4 4 4 4 4 4 3 3 3 3 3 3 2 2 2 2 2 1 1 1 1 1 1 0 0 0 -0 -0 -0 -0 -1 -1 -1 -1
Wind_Speed
4 3 1 3 4 4 5 6 6 6 5 7 5 4 3 1 0 0 1 1 2 3 4 3 2 2 2 3 2 2 2 1 2 1 0 1 1 1 1 1 1 1 1 1
2 1 1 2 4 3 4 4 4 3 5 5 3 1 0 1 1 1 2 2 2 2 3 4 4 4 3 3 3 2 2 3 2 1 1 1 0 1 2 2 2 2 1 1
3 4 3 4 5 5 3 3 4 6 6 2 1 2 3 3 3 4 3 3 2 2 3 4 4 4 4 4 3 2 3 3 2 2 2 1 1 1 1 1 1 1 1 0
1 1 4 6 2 3 3 3 4 4 3 2 3 3 2 2 4 4 3 3 3 3 3 2 2 3 2 2 2 3 3 2 2 2 2 1 1 1 1 0 0 0 0 0
3 2 6 6 2 2 3 3 3 4 2 1 1 3 3 2 2 4 4 3 3 3 3 2 1 2 2 1 1 2 2 3 3 4 3 2 2 2 2 1 1 0 0 0
3 3 5 5 3 1 3 4 3 3 2 1 3 1 5 3 2 2 1 1 1 1 0 0 1 1 3 2 2 3 4 3 3 3 4 4 4 3 2 1 1 1 0 1
4 4 6 6 3 2 3 5 2 3 3 3 3 5 4 2 2 2 1 1 0 0 0 1 0 1 2 2 3 4 3 2 1 2 3 3 3 2 2 2 1 1 0 1
4 4 7 3 3 5 6 3 2 3 3 4 4 3 2 1 1 1 1 1 0 1 0 1 0 1 1 3 4 2 2 2 1 1 1 1 2 1 2 2 2 1 0 1
7 7 4 3 4 3 2 2 3 3 4 3 2 2 2 2 2 2 1 1 0 1 0 1 0 1 1 3 2 1 2 2 2 2 1 2 2 2 2 2 2 1 1 1
3 6 5 4 3 2 2 3 3 3 3 3 3 3 2 2 2 2 1 1 1 1 1 1 2 1 2 2 0 1 1 1 2 2 2 1 2 2 2 2 2 2 2 2
4 6 5 4 4 3 2 1 1 1 1 3 2 2 3 2 2 2 2 1 1 2 2 3 2 2 2 1 1 1 1 2 2 2 2 2 2 2 3 3 4 4 4 3
7 6 5 5 4 2 2 2 2 1 1 1 2 3 2 3 2 2 2 1 1 2 2 2 2 3 2 1 1 2 1 1 1 2 2 2 2 1 2 3 4 4 4 4
5 3 4 4 3 2 3 3 3 2 2 2 2 2 2 2 2 2 2 2 2 3 3 3 2 3 3 2 2 2 3 2 2 2 2 2 2 2 2 2 3 3 4 4
3 2 2 3 3 3 2 2 1 1 1 1 1 1 1 2 2 2 3 3 3 2 3 3 3 4 3 3 3 3 3 3 2 2 3 3 3 3 3 2 2 3 4 5
3 3 4 3 2 2 1 0 0 1 2 2 1 1 1 2 3 3 3 2 2 2 3 3 3 5 3 2 3 3 2 2 2 2 2 2 2 2 2 3 3 3 2 3
2 1 2 2 3 2 1 1 2 4 3 3 2 2 3 3 3 3 2 1 1 3 4 3 4 5 3 2 2 2 3 3 2 2 2 2 2 2 2 3 3 3 3 3
2 2 3 3 3 3 3 4 4 4 3 3 3 2 1 1 2 2 3 3 3 4 3 4 4 4 3 2 3 2 2 3 3 2 2 2 2 3 3 3 3 4 4 4
4 5 5 4 3 4 4 4 3 3 3 3 2 1 1 2 3 4 4 3 2 3 3 4 3 3 2 3 2 2 2 2 2 2 2 2 3 3 3 3 3 4 3 3
3 3 3 4 4 3 3 3 4 3 3 2 2 2 2 3 3 3 2 2 2 4 5 4 4 2 3 3 2 1 2 2 2 2 2 3 2 2 2 3 3 3 3 3
3 3 3 3 3 3 3 3 2 2 2 2 2 1 2 4 3 3 2 3 4 4 4 4 3 2 3 2 1 1 2 2 2 2 2 2 2 3 3 3 3 3 3 3
3 3 3 3 3 3 3 3 2 2 2 2 3 3 4 4 3 2 2 4 5 4 3 4 2 2 2 2 2 1 2 2 2 2 3 3 3 3 3 3 3 3 3 3
2 2 3 2 2 3 3 2 2 2 2 2 3 3 2 3 2 2 3 4 4 4 3 3 3 4 3 2 1 2 2 2 3 2 2 3 3 3 3 3 3 3 3 3
2 2 2 2 3 3 2 2 2 2 3 3 3 3 3 3 3 2 4 4 3 4 3 3 4 5 4 2 2 2 2 3 3 3 3 3 3 3 4 4 4 4 4 4
2 2 2 2 1 0 1 2 2 2 2 2 3 3 3 2 3 3 3 4 4 4 3 4 5 5 3 1 2 2 2 3 3 4 4 3 4 4 4 4 4 4 4 4
2 2 1 0 1 2 2 2 2 1 1 2 3 3 3 2 3 3 3 3 4 4 3 4 5 4 2 1 2 3 3 4 4 3 3 3 3 4 4 4 4 4 4 4
2 2 2 2 2 2 1 1 1 2 2 2 3 3 2 2 2 2 2 3 3 4 3 3 3 3 2 2 3 3 3 4 4 4 4 4 4 4 4 4 5 5 5 5
1 1 1 1 2 1 1 1 2 2 3 3 3 3 3 2 2 2 2 2 3 3 2 2 2 2 2 3 3 3 3 4 4 4 4 4 4 4 5 6 5 5 5 5
Wind_Direction
241 252 217 248 237 187 183 191 199 235 240 264 266 253 251 249 267 21 261 228 222 224 226 225 222 227 227 230 231 205 180 185 218 227 152 69 42 42 42 61 86 104 128 159
304 323 254 278 275 228 212 204 215 248 269 267 264 278 278 208 190 220 256 264 273 259 240 230 224 224 228 229 221 194 198 217 215 177 123 111 123 74 52 47 54 65 60 153
262 306 353 283 247 216 210 207 187 220 246 265 306 267 238 227 219 227 237 253 267 266 250 246 235 224 221 224 209 192 213 228 202 173 174 198 160 97 78 45 59 61 28 80
169 39 247 249 251 190 188 250 215 214 245 242 238 256 260 230 214 228 243 252 262 266 260 258 240 220 223 212 193 201 212 219 205 181 196 195 153 164 187 131 111 156 299 216
136 213 273 291 268 184 190 271 225 204 236 279 348 23 327 290 231 229 232 237 240 242 241 237 239 198 157 167 189 199 221 221 213 197 194 188 194 207 199 160 167 230 261 254
138 184 242 254 268 243 124 278 254 197 221 252 76 6 283 298 291 274 269 259 252 258 340 290 279 174 152 184 194 221 231 229 219 200 192 195 205 207 195 173 199 222 289 288
170 216 259 258 269 115 163 249 257 200 207 197 200 225 259 286 298 279 264 274 266 138 85 276 262 122 154 199 229 239 230 206 199 205 207 199 194 183 172 169 160 161 289 313
162 199 254 243 138 173 221 255 233 218 220 220 236 265 283 276 287 305 307 314 234 139 310 315 108 120 188 241 242 225 187 175 193 208 212 181 158 154 149 155 159 177 183 316
189 213 241 223 208 230 203 218 233 229 247 220 227 255 259 263 264 274 272 246 217 158 230 328 306 169 232 269 264 190 171 181 196 194 194 171 164 167 156 161 170 197 211 264
240 264 260 259 255 263 218 223 245 247 245 208 223 242 251 259 261 268 289 270 195 132 153 286 291 269 252 279 166 149 168 199 200 192 204 192 174 169 171 183 190 205 223 250
245 271 300 284 249 248 259 276 296 300 242 207 202 248 246 245 249 253 268 286 203 193 218 247 264 269 273 271 152 155 185 201 209 208 206 203 200 199 196 206 199 195 211 219
227 227 212 253 269 248 224 245 231 221 284 278 218 232 240 246 251 252 250 260 260 230 231 250 263 271 280 271 203 187 210 229 220 212 207 199 207 272 261 233 240 228 226 219
224 228 216 254 273 248 236 249 244 222 221 257 277 240 231 255 261 262 264 258 250 240 237 243 255 265 269 268 232 213 224 233 230 220 210 205 204 211 259 293 272 261 258 252
221 197 244 247 253 263 260 264 248 268 271 253 262 283 279 293 293 270 261 258 265 266 257 254 256 263 263 255 232 225 229 232 227 222 210 206 209 213 218 230 264 280 272 258
244 221 227 249 264 279 286 270 312 291 295 297 289 279 276 280 275 271 274 279 292 286 275 269 267 272 270 250 229 226 224 232 227 219 214 209 210 212 220 228 240 259 276 277
239 236 231 243 256 269 265 231 239 256 256 258 264 265 257 259 275 288 294 289 283 277 274 268 268 275 267 243 229 230 231 237 222 211 212 213 213 216 225 231 240 249 254 259
196 239 245 259 264 269 260 246 239 244 241 244 249 254 260 294 306 301 299 292 271 266 268 265 272 281 267 235 219 226 226 227 223 214 210 217 223 225 227 231 240 248 251 252
212 220 217 221 235 255 266 259 250 245 236 239 241 236 242 253 266 273 276 279 299 306 291 275 274 281 270 248 229 225 209 211 210 214 221 225 232 232 232 234 241 248 261 266
228 228 235 239 236 235 244 245 243 238 231 211 197 225 246 255 264 270 271 270 277 284 287 283 287 287 264 254 243 208 202 211 218 223 224 239 250 242 239 241 248 251 252 256
249 248 247 249 247 238 243 247 241 235 230 207 200 234 270 275 272 262 256 261 262 264 270 276 274 263 256 248 239 185 194 209 218 222 225 229 239 247 244 244 245 250 255 255
262 261 256 253 256 257 247 236 222 230 240 222 215 231 250 265 268 256 254 274 282 280 280 280 274 260 249 243 226 198 204 209 218 228 235 238 245 251 250 249 249 253 256 263
266 262 259 254 252 268 271 251 231 239 251 252 252 247 254 270 276 277 268 262 272 276 276 269 265 261 258 244 205 205 217 225 230 230 233 241 245 248 251 252 251 253 254 255
281 271 263 253 247 258 280 259 240 237 240 243 243 243 248 256 250 250 278 277 277 282 282 262 265 268 262 229 212 219 224 231 233 233 235 235 239 244 248 252 254 255 255 258
294 290 280 272 274 298 287 289 282 264 261 264 257 251 250 264 279 270 268 279 282 278 272 269 273 273 269 231 218 227 235 239 242 243 240 238 240 246 250 251 254 256 254 255
294 290 289 248 242 259 267 292 318 310 297 288 287 280 267 250 252 265 271 270 276 280 277 275 276 277 267 239 233 240 244 245 248 248 240 244 246 245 246 249 251 253 255 257
289 276 264 249 245 254 260 254 262 263 262 278 291 289 288 287 279 278 277 272 273 284 282 273 267 262 250 243 244 246 246 254 261 257 249 251 252 254 256 255 255 256 257 258
328 326 333 333 319 297 269 246 249 260 252 249 271 278 275 278 281 278 279 286 287 283 275 267 258 250 249 249 252 255 255 255 254 253 252 250 251 252 255 255 258 260 260 261
Height
1514 1511 1511 1512 1511 1512 1516 1518 1523 1518 1516 1510 1507 1506 1505 1504 1504 1504 1505 1506 1506 1506 1507 1508 1509 1509 1510 1510 1510 1510 1510 1510 1510 1510 1509 1509 1509 1509 1509 1509 1509 1510 1510 1510
1514 1511 1511 1512 1510 1510 1511 1512 1513 1513 1512 1505 1504 1504 1503 1503 1503 1503 1503 1504 1504 1505 1505 1506 1506 1507 1507 1507 1508 1508 1507 1507 1507 1507 1507 1507 1507 1507 1507 1507 1507 1507 1507 1507
1521 1515 1511 1516 1508 1507 1508 1507 1508 1511 1508 1503 1503 1502 1502 1501 1502 1502 1502 1502 1502 1502 1503 1503 1504 1504 1504 1505 1505 1505 1505 1505 1505 1505 1505 1505 1505 1504 1504 1504 1504 1504 1504 1504
1523 1519 1522 1511 1502 1502 1504 1504 1504 1503 1502 1502 1501 1501 1500 1500 1500 1500 1500 1500 1500 1500 1500 1501 1502 1502 1502 1502 1502 1502 1502 1502 1502 1502 1502 1502 1502 1502 1502 1502 1502 1502 1501 1501
1526 1524 1518 1508 1501 1502 1503 1504 1501 1501 1501 1500 1500 1499 1499 1499 1498 1498 1498 1498 1498 1498 1498 1498 1499 1499 1499 1499 1499 1499 1499 1499 1499 1499 1499 1499 1499 1499 1499 1499 1499 1499 1499 1498
1525 1522 1520 1507 1500 1498 1502 1505 1499 1499 1499 1499 1499 1503 1500 1497 1497 1497 1497 1496 1496 1496 1496 1496 1496 1496 1496 1495 1496 1496 1496 1496 1496 1496 1495 1495 1495 1495 1495 1495 1495 1495 1495 1495
1523 1521 1514 1502 1498 1499 1509 1506 1497 1496 1496 1497 1497 1498 1497 1495 1495 1494 1494 1494 1494 1494 1494 1494 1494 1493 1492 1492 1492 1492 1493 1493 1493 1493 1493 1492 1492 1492 1492 1492 1492 1492 1492 1492
1521 1521 1514 1498 1498 1501 1500 1496 1495 1495 1495 1494 1494 1494 1493 1493 1492 1492 1492 1492 1491 1491 1491 1491 1491 1491 1490 1489 1489 1489 1489 1489 1489 1489 1489 1489 1489 1489 1489 1489 1489 1488 1488 1488
1508 1506 1498 1495 1495 1495 1494 1494 1493 1493 1493 1492 1492 1491 1491 1490 1490 1490 1490 1489 1489 1489 1489 1489 1489 1488 1487 1487 1486 1486 1486 1486 1486 1486 1486 1486 1486 1486 1486 1485 1485 1485 1485 1485
1502 1497 1494 1493 1493 1492 1492 1492 1491 1491 1491 1490 1489 1489 1489 1488 1488 1487 1487 1487 1486 1486 1486 1486 1486 1485 1485 1484 1484 1483 1483 1483 1483 1483 1483 1483 1483 1483 1483 1483 1482 1482 1482 1481
1498 1494 1492 1490 1490 1490 1490 1489 1489 1489 1489 1488 1487 1487 1487 1486 1486 1485 1485 1484 1484 1484 1483 1483 1483 1482 1482 1481 1481 1480 1480 1480 1479 1480 1480 1480 1480 1480 1480 1480 1480 1479 1479 1479
1493 1489 1490 1488 1488 1488 1487 1487 1486 1486 1486 1486 1485 1485 1484 1484 1484 1483 1483 1482 1481 1481 1480 1480 1480 1479 1479 1478 1478 1477 1476 1476 1476 1476 1476 1476 1476 1476 1476 1477 1477 1476 1476 1476
1485 1485 1486 1485 1485 1485 1484 1484 1484 1484 1483 1483 1483 1483 1482 1482 1481 1481 1480 1479 1479 1478 1478 1477 1476 1476 1476 1475 1475 1474 1473 1473 1473 1473 1473 1473 1473 1472 1472 1473 1473 1472 1472 1472
1483 1483 1483 1482 1483 1482 1482 1481 1481 1481 1481 1481 1481 1480 1480 1479 1479 1478 1477 1477 1476 1475 1474 1474 1473 1472 1472 1472 1471 1470 1470 1470 1469 1469 1469 1469 1469 1469 1469 1468 1468 1468 1468 1468
1480 1480 1480 1479 1479 1479 1479 1479 1478 1478 1478 1478 1478 1477 1477 1476 1476 1475 1475 1474 1473 1472 1471 1470 1469 1468 1468 1468 1467 1466 1466 1466 1465 1466 1466 1466 1465 1465 1465 1464 1464 1463 1463 1464
1477 1477 1477 1477 1476 1476 1476 1475 1475 1474 1474 1474 1474 1474 1474 1474 1473 1472 1471 1471 1469 1468 1467 1466 1465 1465 1465 1464 1463 1462 1462 1462 1462 1462 1462 1462 1461 1461 1461 1460 1460 1460 1459 1459
1473 1473 1473 1473 1472 1472 1472 1472 1471 1471 1471 1471 1471 1471 1471 1470 1469 1468 1468 1467 1466 1465 1464 1463 1462 1461 1461 1460 1459 1459 1458 1458 1458 1458 1458 1458 1457 1457 1457 1457 1456 1456 1455 1455
1470 1470 1470 1470 1469 1469 1468 1468 1468 1468 1467 1468 1468 1467 1467 1466 1465 1464 1464 1463 1462 1461 1460 1459 1458 1458 1457 1456 1456 1455 1455 1454 1454 1454 1454 1453 1453 1453 1453 1452 1452 1451 1451 1451
1465 1466 1466 1466 1466 1466 1465 1464 1464 1464 1464 1464 1464 1464 1463 1463 1462 1461 1460 1459 1458 1456 1456 1455 1454 1454 1453 1452 1452 1451 1451 1450 1450 1450 1450 1450 1449 1449 1449 1448 1448 1447 1447 1446
1462 1462 1462 1463 1463 1463 1462 1462 1461 1461 1461 1461 1461 1460 1460 1459 1459 1458 1456 1455 1454 1453 1452 1452 1450 1449 1449 1448 1448 1447 1447 1447 1446 1446 1446 1446 1445 1445 1444 1444 1443 1443 1442 1442
1459 1459 1459 1459 1459 1459 1459 1459 1458 1458 1457 1457 1457 1457 1456 1456 1455 1454 1453 1451 1451 1450 1449 1448 1447 1446 1445 1445 1444 1444 1443 1443 1443 1442 1442 1442 1441 1441 1440 1440 1439 1438 1438 1437
1456 1456 1456 1455 1455 1455 1455 1455 1455 1454 1454 1454 1454 1453 1453 1452 1451 1450 1449 1448 1447 1446 1445 1444 1443 1442 1442 1441 1440 1440 1440 1439 1439 1439 1438 1437 1437 1436 1436 1435 1435 1434 1433 1432
1454 1453 1453 1452 1452 1451 1451 1452 1451 1451 1450 1450 1450 1449 1449 1448 1448 1447 1445 1444 1443 1442 1441 1440 1439 1439 1438 1437 1437 1436 1436 1435 1435 1435 1434 1433 1433 1432 1432 1431 1430 1430 1429 1428
1451 1450 1450 1449 1449 1448 1448 1448 1448 1448 1447 1447 1447 1446 1446 1445 1444 1443 1442 1441 1440 1439 1438 1437 1436 1435 1434 1433 1433 1433 1432 1432 1431 1431 1430 1429 1429 1428 1427 1426 1426 1425 1424 1423
1449 1448 1447 1447 1446 1445 1445 1445 1444 1444 1444 1443 1443 1443 1442 1442 1441 1439 1439 1438 1437 1435 1434 1433 1432 1431 1430 1430 1429 1429 1428 1428 1427 1427 1426 1425 1424 1423 1423 1422 1421 1420 1419 1418
1446 1446 1445 1444 1444 1444 1443 1442 1441 1441 1441 1440 1439 1439 1439 1438 1437 1436 1435 1434 1433 1432 1431 1430 1429 1428 1427 1426 1426 1425 1425 1424 1423 1423 1422 1421 1420 1419 1418 1417 1416 1415 1414 1413
1444 1443 1443 1442 1442 1441 1441 1440 1439 1439 1438 1437 1437 1436 1436 1435 1434 1433 1432 1431 1430 1428 1427 1426 1425 1424 1424 1423 1422 1422 1421 1420 1419 1418 1417 1416 1415 1414 1413 1412 1411 1410 1409 1408